Weather reports worldwide

Advertisment
J6-A, Netherlands (6211): temperature & dewpoint: 09.08.2020 22:00:00 - 15.08.2020 22:00:00 (CEST)J6-A, Netherlands (6211): wind speed & gusts: 09.08.2020 22:00:00 - 15.08.2020 22:00:00 (CEST)J6-A, Netherlands (6211): wind direction: 09.08.2020 22:00:00 - 15.08.2020 22:00:00 (CEST)J6-A, Netherlands (6211): reduced air pressure: 09.08.2020 22:00:00 - 15.08.2020 22:00:00 (CEST)J6-A, Netherlands (6211): visibility: 09.08.2020 22:00:00 - 15.08.2020 22:00:00 (CEST)
Date & Time tt [°C] td [°C] ff [km/h] ff [kn] fx [km/h] fx [kn] dd ppp [hPa] vv [km]
15.08.2020 22:00:00 18,2 16,4 31 17 36 19 ENE 1015,8 10
15.08.2020 21:00:00 18,2 16,3 31 17 32 18 NE 1015,8 10
15.08.2020 20:00:00 18,2 16,4 35 19 32 18 NE 1015,7 10
15.08.2020 19:00:00 18,1 16,2 31 17 32 18 NE 1015,8 10
15.08.2020 18:00:00 18,2 16,2 31 17 32 18 NE 1016,0 10
15.08.2020 17:00:00 18,3 16,3 29 16 32 18 NE 1016,2 10
15.08.2020 16:00:00 18,4 16,2 31 17 32 18 NE 1016,4 10
15.08.2020 15:00:00 18,4 16,0 31 17 32 18 NE 1016,7 10
15.08.2020 14:00:00 18,3 16,2 28 15 32 18 ENE 1016,8 10
15.08.2020 13:00:00 18,2 16,0 31 17 32 18 NE 1016,7 10
15.08.2020 12:00:00 18,1 16,0 34 18 36 19 NE 1016,7 10
15.08.2020 11:00:00 18,1 15,9 34 18 36 19 ENE 1016,6 10
15.08.2020 10:00:00 18,0 15,6 31 17 36 19 NE 1016,5 10
15.08.2020 09:00:00 18,0 15,7 29 16 43 23 NE 1016,3 20
15.08.2020 08:00:00 18,1 16,1 44 24 43 23 NNE 1015,6 10
15.08.2020 07:00:00 17,9 15,8 41 22 43 23 NNE 1015,4 10
15.08.2020 06:00:00 17,9 16,1 39 21 40 21 NNE 1015,3 10
15.08.2020 05:00:00 18,0 16,5 37 20 36 19 NNE 1015,1 10
15.08.2020 04:00:00 18,1 16,7 31 17 32 18 NNE 1015,5 10
15.08.2020 03:00:00 18,2 16,8 35 19 36 19 NNE 1015,5 10
15.08.2020 02:00:00 18,2 16,8 39 21 36 19 NNE 1015,7 10
15.08.2020 01:00:00 18,3 17,0 34 18 36 19 - 1015,8 10
15.08.2020 00:00:00 18,4 17,1 31 17 32 18 NNE 1015,8 10
14.08.2020 23:00:00 18,4 16,9 35 19 36 19 NNE 1015,3 10
14.08.2020 22:00:00 18,6 17,1 34 18 36 19 NNE 1015,0 10
14.08.2020 21:00:00 18,8 17,5 34 18 36 19 NNE 1014,5 10
14.08.2020 20:00:00 19,4 17,8 31 17 32 18 NNE 1014,5 10
14.08.2020 19:00:00 19,7 17,4 29 16 29 16 NNE 1014,3 10
14.08.2020 18:00:00 19,9 17,7 26 14 25 14 NE 1014,1 10
14.08.2020 17:00:00 19,9 18,3 24 13 29 16 NE 1014,0 10
14.08.2020 16:00:00 19,8 18,0 22 12 25 14 ENE 1014,2 10
14.08.2020 15:00:00 20,2 18,1 26 14 29 16 ENE 1014,0 10
14.08.2020 14:00:00 19,7 18,0 29 16 32 18 ENE 1013,5 10
14.08.2020 13:00:00 19,7 17,8 34 18 32 18 NE 1013,1 10
14.08.2020 12:00:00 19,7 18,0 34 18 32 18 NE 1013,1 10
14.08.2020 11:00:00 19,7 17,8 29 16 29 16 NE 1013,2 10
14.08.2020 10:00:00 19,7 17,6 29 16 29 16 NE 1013,2 10
14.08.2020 09:00:00 19,9 17,2 34 18 32 18 NE 1012,9 10
14.08.2020 08:00:00 20,0 16,9 35 19 36 19 NE 1012,4 10
14.08.2020 07:00:00 20,2 16,8 37 20 36 19 NE 1011,9 10
14.08.2020 06:00:00 20,0 16,9 34 18 32 18 ENE 1011,8 10
14.08.2020 05:00:00 20,1 17,0 34 18 32 18 NE 1012,0 10
14.08.2020 04:00:00 20,2 17,5 31 17 32 18 NE 1012,3 10
14.08.2020 03:00:00 20,5 17,5 37 20 36 19 NE 1012,3 10
14.08.2020 02:00:00 20,4 18,0 35 19 32 18 NE 1012,6 10
14.08.2020 01:00:00 20,5 17,9 26 14 29 16 NE 1012,8 10
14.08.2020 00:00:00 20,5 18,0 29 16 29 16 NE 1013,3 10
13.08.2020 23:00:00 20,0 18,2 26 14 29 16 NE 1013,0 10
13.08.2020 22:00:00 19,9 18,3 28 15 29 16 NE 1013,0 10
13.08.2020 21:00:00 20,3 18,1 24 13 25 14 ENE 1012,9 10
13.08.2020 20:00:00 20,6 18,2 24 13 25 14 ENE 1012,7 10
13.08.2020 19:00:00 20,6 18,5 22 12 25 14 ENE 1012,6 10
13.08.2020 18:00:00 20,8 18,5 21 11 25 14 ENE 1012,9 10
13.08.2020 17:00:00 22,5 18,7 21 11 22 12 ENE 1013,2 10
13.08.2020 16:00:00 20,9 18,8 21 11 25 14 E 1013,4 10
13.08.2020 15:00:00 21,1 18,7 21 11 25 14 ENE 1013,2 10
13.08.2020 14:00:00 21,4 18,6 22 12 25 14 E 1013,3 10
13.08.2020 13:00:00 22,0 18,6 21 11 32 18 E 1013,0 10
13.08.2020 12:00:00 21,5 19,1 21 11 29 16 E 1013,0 10
13.08.2020 11:00:00 20,6 18,8 15 8 29 16 - 1012,9 10
13.08.2020 10:00:00 20,1 18,6 9 5 29 16 NE 1012,8 10
13.08.2020 09:00:00 19,8 18,4 22 12 29 16 - 1012,9 10
13.08.2020 08:00:00 19,8 18,3 22 12 32 18 E 1012,8 10
13.08.2020 07:00:00 19,9 18,6 26 14 29 16 - 1012,5 10
13.08.2020 06:00:00 19,6 18,3 24 13 29 16 NE 1012,4 10
13.08.2020 05:00:00 19,8 18,2 26 14 29 16 ENE 1012,5 10
13.08.2020 04:00:00 19,7 18,2 24 13 29 16 NE 1012,6 10
13.08.2020 03:00:00 19,8 18,1 22 12 29 16 NE 1013,0 10
13.08.2020 02:00:00 19,7 18,4 24 13 25 14 ENE 1013,5 10
13.08.2020 01:00:00 19,9 18,5 21 11 25 14 ENE 1014,4 10
13.08.2020 00:00:00 20,0 18,5 22 12 29 16 E 1014,4 10
12.08.2020 23:00:00 20,1 18,5 22 12 25 14 E 1014,7 10
12.08.2020 22:00:00 20,4 18,7 21 11 29 16 ENE 1014,7 10
12.08.2020 21:00:00 21,4 18,5 16 9 22 12 ENE 1014,2 10
12.08.2020 20:00:00 21,5 18,8 9 5 25 14 NE 1014,4 10
12.08.2020 19:00:00 22,6 18,7 16 9 25 14 - 1014,5 10
12.08.2020 18:00:00 23,2 18,7 24 13 25 14 - 1015,0 10
12.08.2020 17:00:00 22,5 18,6 22 12 25 14 E 1015,1 10
12.08.2020 16:00:00 22,3 18,8 21 11 22 12 E 1015,1 10
12.08.2020 15:00:00 22,5 18,7 15 8 22 12 ENE 1015,5 10
12.08.2020 14:00:00 21,2 18,6 2 1 11 6 - 1015,8 10
12.08.2020 13:00:00 21,4 19,2 4 2 7 4 SSW 1015,7 10
12.08.2020 12:00:00 21,4 18,9 9 5 14 8 SSW 1015,5 9
12.08.2020 11:00:00 21,5 18,6 9 5 18 10 S 1015,5 10
12.08.2020 10:00:00 21,4 18,7 21 11 25 14 ESE 1015,2 10
12.08.2020 09:00:00 20,5 18,4 13 7 25 14 SW 1014,7 10
12.08.2020 08:00:00 21,5 18,1 22 12 25 14 SE 1015,2 10
12.08.2020 07:00:00 22,1 17,9 14 8 25 14 SSE 1014,4 28
12.08.2020 06:00:00 21,5 18,5 24 13 29 16 SE 1014,8 10
12.08.2020 05:00:00 21,8 18,6 31 17 29 16 SSE 1014,4 10
12.08.2020 04:00:00 21,8 18,3 29 16 29 16 SE 1014,6 10
12.08.2020 03:00:00 22,3 18,2 28 15 29 16 ESE 1014,6 10
12.08.2020 02:00:00 21,6 18,1 31 17 29 16 ESE 1014,6 10
12.08.2020 01:00:00 21,4 18,0 22 12 29 16 ESE 1015,4 20
12.08.2020 00:00:00 20,9 18,0 28 15 36 19 ESE 1015,8 10
11.08.2020 23:00:00 21,1 17,9 41 22 40 21 ESE 1015,6 10
11.08.2020 22:00:00 21,1 17,9 41 22 40 21 E 1015,1 10
11.08.2020 21:00:00 21,3 18,0 39 21 40 21 E 1015,2 10
11.08.2020 20:00:00 21,2 18,1 41 22 40 21 E 1015,1 10
11.08.2020 19:00:00 21,1 18,1 41 22 36 19 ENE 1015,2 10
11.08.2020 18:00:00 20,9 17,8 42 23 40 21 ENE 1015,5 10
11.08.2020 17:00:00 20,9 17,7 44 24 40 21 ENE 1016,3 10
11.08.2020 16:00:00 20,8 17,8 41 22 40 21 ENE 1016,6 10
11.08.2020 15:00:00 20,3 17,6 48 26 43 23 NE 1016,7 10
11.08.2020 14:00:00 20,1 17,7 44 24 40 21 ENE 1017,0 10
11.08.2020 13:00:00 20,3 17,9 42 23 40 21 ENE 1017,5 10
11.08.2020 12:00:00 20,6 18,0 39 21 36 19 E 1017,4 10
11.08.2020 11:00:00 20,6 18,1 41 22 40 21 E 1017,4 10
11.08.2020 10:00:00 20,6 18,2 42 23 40 21 E 1017,4 10
11.08.2020 09:00:00 20,9 18,3 35 19 40 21 ESE 1017,1 10
11.08.2020 08:00:00 20,6 18,2 41 22 40 21 ESE 1016,9 10
11.08.2020 07:00:00 20,5 18,0 41 22 40 21 ESE 1016,8 10
11.08.2020 06:00:00 20,6 18,0 41 22 40 21 ESE 1016,4 10
11.08.2020 05:00:00 20,6 17,9 39 21 36 19 ESE 1016,2 10
11.08.2020 04:00:00 20,8 17,8 41 22 36 19 E 1016,3 10
11.08.2020 03:00:00 19,8 17,7 29 16 36 19 ENE 1016,6 23
11.08.2020 02:00:00 19,6 17,5 39 21 36 19 ENE 1017,0 10
11.08.2020 01:00:00 19,6 17,5 39 21 43 23 ENE 1016,9 10
11.08.2020 00:00:00 19,6 17,5 44 24 40 21 ENE 1017,3 10
10.08.2020 23:00:00 19,6 17,5 37 20 36 19 ENE 1017,3 10
10.08.2020 22:00:00 19,4 17,6 35 19 40 21 ENE 1017,1 10
10.08.2020 21:00:00 19,4 17,4 37 20 40 21 ENE 1016,8 10
10.08.2020 20:00:00 20,5 17,3 41 22 40 21 ENE 1016,2 10
10.08.2020 19:00:00 19,3 17,4 37 20 36 19 ENE 1016,3 10
10.08.2020 18:00:00 19,4 17,4 39 21 36 19 ENE 1016,7 10
10.08.2020 17:00:00 19,2 17,4 34 18 32 18 ENE 1017,1 10
10.08.2020 16:00:00 19,3 17,4 37 20 32 18 ENE 1017,2 10
10.08.2020 15:00:00 19,4 17,3 35 19 36 19 ENE 1017,5 10
10.08.2020 14:00:00 19,1 17,2 41 22 36 19 ENE 1017,2 10
10.08.2020 13:00:00 19,3 17,0 37 20 36 19 ENE 1017,4 10
10.08.2020 12:00:00 19,3 16,9 37 20 36 19 ENE 1017,5 10
10.08.2020 11:00:00 19,0 16,7 39 21 36 19 ENE 1017,4 10
10.08.2020 10:00:00 18,9 16,6 39 21 40 21 ENE 1017,4 10
10.08.2020 09:00:00 18,6 16,3 39 21 40 21 ENE 1017,3 10
10.08.2020 08:00:00 18,4 15,8 41 22 40 21 ENE 1017,3 10
10.08.2020 07:00:00 18,1 15,4 39 21 40 21 NE 1017,5 10
10.08.2020 06:00:00 18,1 15,0 41 22 40 21 NE 1017,3 10
10.08.2020 05:00:00 18,2 14,6 36 19 43 23 NE 1017,5 24
10.08.2020 04:00:00 18,1 14,6 37 20 40 21 NE 1018,0 10
10.08.2020 03:00:00 17,9 15,0 37 20 40 21 NE 1018,3 10
10.08.2020 02:00:00 18,1 14,6 41 22 40 21 NE 1018,5 10
10.08.2020 01:00:00 17,9 14,9 41 22 40 21 NE 1018,9 10
10.08.2020 00:00:00 17,9 15,4 37 20 36 19 NE 1019,3 10
09.08.2020 23:00:00 18,0 15,1 39 21 40 21 NE 1019,3 10
09.08.2020 22:00:00 18,0 15,1 41 22 43 23 NE 1019,4 10

tt = temperature
td = dewpoint
ff = wind speed
fx = gusts
dd = wind direction
ppp = reduced air pressure
vv = visibility

Next stations